RH
92 96 99 98 98 98 102 106 108 108 106 102 99 96 96 97 97 97 95 92 89 87 85 86 86 86 87 87 86 85 83 82 81 80 79 78 77 77 76 77 77 76
99 98 97 97 96 93 92 94 97 101 103 103 102 100 98 99 99 98 97 96 95 93 92 90 89 87 87 87 87 87 88 89 90 90 89 88 86 85 84 82 80 77
108 109 107 106 105 102 98 93 91 90 92 95 97 99 99 101 103 102 101 100 99 99 98 96 94 92 89 87 84 83 85 87 90 94 95 95 95 96 97 96 94 90
93 100 105 109 111 112 109 104 100 96 93 93 93 94 94 95 99 103 104 106 107 107 105 103 101 98 93 89 85 83 83 82 84 86 89 93 96 98 101 103 103 102
60 67 75 83 91 100 104 106 108 108 107 106 102 99 97 95 95 97 100 103 106 107 108 108 108 107 104 98 93 89 87 85 83 81 79 81 83 87 92 97 101 105
33 35 39 44 50 58 67 76 85 91 98 104 106 108 109 106 103 101 100 99 100 101 103 104 104 105 106 104 101 98 95 93 90 87 83 80 77 77 77 80 84 89
24 25 27 28 28 30 33 38 44 50 58 66 73 82 90 94 98 100 102 102 103 105 106 106 106 104 103 101 99 98 97 95 93 90 87 84 81 79 77 75 74 74
24 24 25 26 27 27 27 28 29 30 33 35 39 44 49 55 61 66 73 78 83 89 94 99 104 107 108 106 103 101 98 95 94 91 89 87 84 82 81 79 76 74
26 26 26 26 27 28 28 29 29 30 30 31 32 33 33 35 37 39 42 44 47 51 56 62 69 78 87 94 101 105 105 104 104 100 97 96 93 91 90 87 82 78
28 27 27 27 27 28 29 29 30 30 31 31 32 33 34 34 35 35 36 37 37 37 37 38 40 43 48 55 65 75 83 92 100 104 106 107 103 99 98 96 92 88
29 28 28 28 27 27 28 28 29 30 30 31 31 32 33 33 34 35 35 36 37 37 37 37 37 37 37 38 39 42 47 54 62 72 83 93 98 100 99 98 97 95
31 30 29 28 28 28 28 27 28 29 29 30 30 31 31 31 32 32 33 34 35 36 36 36 37 37 37 38 38 38 38 39 40 43 48 55 64 71 76 80 84 86
32 31 31 30 30 29 28 28 28 28 29 29 30 31 31 31 31 31 31 31 32 33 33 34 35 35 35 36 36 37 37 37 39 40 41 42 44 47 50 53 58 62
24 25 25 27 28 29 29 29 29 28 28 29 29 30 31 31 32 33 33 33 33 33 33 33 33 33 34 34 34 35 35 35 35 36 37 39 41 43 45 46 47 48
15 16 16 17 18 20 21 23 24 25 25 26 26 26 27 28 29 31 32 34 35 36 36 36 37 37 36 36 35 35 35 35 35 35 34 35 35 38 40 42 44 45
16 15 14 14 14 15 15 16 17 18 19 20 21 21 22 22 23 24 25 27 29 30 32 33 35 36 37 38 39 39 38 38 38 37 37 36 35 35 36 36 37 39
17 18 17 17 16 16 15 15 16 16 17 17 18 19 19 20 20 21 21 22 22 23 24 25 26 28 29 31 32 33 34 35 37 37 38 38 38 37 36 36 35 35
12 13 14 15 16 16 16 16 16 16 16 17 17 17 18 18 19 20 20 21 21 21 21 21 22 22 23 24 25 26 26 27 29 31 32 33 34 35 36 37 37 36
7 8 8 9 11 12 13 13 14 15 15 15 15 15 15 16 16 16 17 17 18 18 18 18 18 18 18 19 19 20 21 22 25 26 27 28 29 30 31 33 34 36
6 6 7 7 7 8 9 9 10 11 11 12 12 12 12 13 13 13 13 14 14 14 14 14 14 14 15 15 15 16 16 17 19 21 21 22 23 25 26 27 28 30
6 6 6 7 7 7 8 8 9 9 9 10 10 10 10 10 11 11 11 11 12 12 12 12 12 12 13 13 13 13 13 14 16 16 17 17 17 18 19 20 22 23
6 6 6 6 7 7 7 8 8 9 9 9 9 9 10 10 10 10 10 10 10 10 10 10 10 11 11 11 11 11 11 11 12 13 13 13 13 13 14 14 15 16
6 6 6 6 6 7 7 7 8 9 9 10 10 10 10 10 9 9 9 9 9 9 9 9 9 9 9 9 9 9 9 9 10 10 10 10 10 10 11 11 11 11
6 6 6 6 6 6 7 7 7 8 9 10 10 10 10 10 10 10 10 10 9 9 9 9 9 9 9 10 9 9 9 9 9 9 9 9 9 9 10 10 10 10
6 6 6 6 7 7 7 7 7 8 9 10 10 11 11 11 10 10 10 11 10 10 10 10 10 10 10 10 10 9 9 10 10 10 10 9 10 10 10 10 10 10
5 6 6 6 7 7 7 7 7 7 8 9 10 11 11 11 11 11 11 11 11 11 11 11 11 11 11 10 10 10 10 10 11 11 11 11 12 12 12 12 12 12
Wind_Speed
97 97 98 98 99 99 99 100 100 101 101 102 102 102 103 103 102 102 102 101 101 101 101 102 101 101 101 101 100 100 100 100 100 101 101 102 102 103 103 104 105 105
100 100 101 102 102 103 103 103 104 104 105 105 105 105 106 107 107 107 106 105 105 105 105 106 106 106 105 105 105 104 103 103 103 103 103 103 103 103 104 104 106 107
101 102 103 104 105 106 107 107 107 108 108 109 109 109 110 110 110 110 110 110 110 109 109 110 110 110 110 110 109 109 108 107 107 107 107 106 106 106 106 106 107 108
101 102 103 103 105 106 108 109 110 110 111 112 112 113 114 114 114 114 114 114 114 114 114 114 114 115 114 114 114 113 113 112 112 112 112 111 111 110 110 110 110 110
102 103 103 104 105 106 107 108 110 111 112 113 113 114 115 116 117 117 118 118 118 118 118 118 118 119 119 119 119 118 117 117 117 117 117 116 116 115 115 115 114 114
103 103 104 104 105 106 107 108 109 110 111 113 114 114 115 116 117 118 119 119 120 121 121 122 122 123 123 123 123 123 122 122 122 122 121 121 121 120 120 120 120 120
103 103 103 104 104 104 105 106 108 109 110 111 113 114 115 116 117 118 119 119 120 121 122 123 124 125 126 127 127 127 126 126 126 126 126 125 125 124 124 124 125 124
101 102 103 103 103 103 104 104 105 106 108 109 110 112 113 114 116 117 118 119 120 121 122 122 123 125 126 127 128 128 129 129 129 129 129 129 129 128 129 129 129 129
101 102 103 103 104 104 104 104 104 105 106 107 108 109 110 111 113 114 116 117 118 120 121 122 123 124 125 126 127 128 129 129 130 130 131 131 131 131 132 132 132 132
102 102 103 104 104 104 105 105 105 105 105 106 107 108 109 110 111 112 113 114 115 117 118 120 121 122 124 125 126 127 129 130 131 131 132 133 133 133 134 134 135 134
103 103 104 104 105 105 106 106 106 106 106 106 107 107 108 109 110 111 112 113 114 115 116 117 118 120 121 123 124 125 127 128 129 130 132 133 134 135 136 136 137 137
104 105 105 105 106 106 106 106 107 107 107 107 108 108 108 109 110 111 111 112 113 114 115 116 118 119 120 121 122 123 124 125 126 128 129 131 133 134 135 136 137 138
106 106 107 107 107 107 108 108 108 108 108 108 108 108 109 109 110 110 111 112 113 113 114 115 117 118 119 120 121 122 123 124 125 126 127 128 130 131 133 134 135 136
105 106 107 107 108 108 109 109 109 110 109 109 109 109 109 110 110 111 111 112 113 113 114 114 115 116 117 118 120 121 122 124 124 125 126 127 128 130 131 132 133 135
102 103 104 105 106 107 108 109 109 110 110 111 111 111 110 110 111 111 112 112 113 114 114 115 115 116 117 117 118 119 120 121 123 124 125 127 128 129 131 132 133 134
101 102 102 103 103 104 105 106 107 108 109 110 110 110 111 111 111 111 111 112 112 113 114 115 115 116 117 118 118 119 119 120 121 122 123 124 126 128 130 131 133 134
100 101 102 103 103 103 104 104 104 105 106 107 108 109 109 110 110 110 111 111 111 112 112 113 113 114 115 116 117 118 119 119 120 121 122 123 124 126 127 129 131 132
97 98 100 102 103 103 104 104 105 105 105 106 106 107 107 108 109 110 110 110 111 111 111 112 112 112 113 113 114 115 115 116 117 119 121 122 124 125 126 127 128 130
92 94 95 97 99 101 102 103 104 105 105 106 106 106 106 107 107 108 108 109 109 110 110 110 110 110 111 111 111 112 112 112 113 115 117 120 121 123 124 125 127 128
88 88 89 90 92 94 96 98 100 101 103 104 104 105 105 106 106 106 106 107 107 108 108 108 108 108 108 109 109 110 110 109 110 112 114 116 117 119 121 123 124 126
84 84 84 84 85 87 89 91 93 94 96 98 99 100 101 102 103 103 103 104 104 104 104 104 104 105 105 106 106 107 107 106 107 110 111 112 113 115 116 118 120 122
81 81 80 80 80 81 83 84 86 87 89 91 93 94 96 97 98 99 99 100 100 100 101 101 101 101 101 102 103 103 103 104 104 106 108 109 110 110 112 113 116 118
78 78 77 77 77 78 78 79 80 81 83 85 86 88 90 91 93 94 95 96 96 97 97 97 97 98 98 98 99 100 100 100 101 102 103 104 105 105 107 109 111 113
75 74 74 74 74 75 75 76 76 77 78 80 81 83 85 86 88 89 90 92 93 93 94 94 94 95 95 96 96 97 97 97 97 98 99 100 100 101 103 105 106 107
72 72 71 72 72 72 72 73 74 74 75 76 77 78 80 82 83 84 86 87 89 90 91 92 92 92 93 94 94 94 94 94 95 95 96 96 97 98 100 101 102 102
70 69 69 70 70 70 70 71 71 72 72 73 73 74 76 77 79 80 81 82 84 85 87 88 89 90 91 91 92 92 92 92 92 93 94 94 95 97 99 99 99 99
Wind_Direction
261 260 260 260 259 259 258 258 259 259 260 260 260 261 261 260 259 259 258 257 257 257 256 256 256 256 256 256 256 256 257 257 257 257 257 258 258 258 258 258 258 258
262 261 260 260 259 259 258 258 257 257 258 258 259 259 260 260 261 261 260 259 258 258 257 257 256 256 256 256 255 255 256 256 256 256 256 257 257 257 258 258 258 258
262 262 261 261 260 260 259 259 258 258 257 257 257 258 258 259 259 260 260 260 260 260 259 258 258 257 256 256 256 255 255 255 255 255 255 255 256 256 256 257 257 257
263 262 261 261 260 260 260 260 259 259 259 258 258 258 258 258 258 258 259 259 260 260 260 260 260 259 258 258 257 256 256 255 255 254 254 254 255 255 255 255 256 256
265 263 262 261 260 260 259 259 259 259 259 259 259 258 258 258 258 258 258 258 258 259 259 259 260 260 260 260 259 258 257 257 256 255 255 254 254 254 254 254 255 255
267 266 264 263 262 261 260 259 259 258 258 259 259 259 259 258 258 258 258 257 257 258 258 258 259 259 260 260 260 260 260 259 258 258 257 256 256 255 255 254 254 254
268 267 266 265 264 263 262 261 261 260 259 258 258 258 258 258 259 259 258 258 258 257 257 257 257 258 258 258 259 260 260 260 260 259 259 259 258 258 257 256 256 255
267 267 267 266 265 264 263 262 262 261 261 260 259 259 258 258 258 258 258 259 259 259 258 258 258 257 257 258 258 258 259 259 259 259 260 260 260 260 259 259 258 258
268 268 267 267 266 265 264 263 262 262 261 261 261 260 260 259 259 258 258 258 258 259 259 259 259 258 258 258 258 258 258 259 259 259 259 259 260 260 260 260 260 260
269 268 268 267 267 266 266 265 264 263 262 261 261 261 261 260 260 259 259 259 258 258 258 258 259 259 259 259 258 258 258 258 259 259 259 260 260 260 260 260 261 261
269 269 268 268 267 267 266 266 265 264 264 263 262 261 261 260 260 260 260 260 259 259 259 259 259 259 259 259 259 259 258 258 258 258 259 259 259 260 260 260 261 261
269 269 269 268 268 267 267 266 266 265 265 264 263 263 262 261 261 261 260 260 260 260 260 260 259 259 259 259 259 259 259 259 259 259 258 258 259 259 259 260 260 261
269 268 268 268 268 268 267 267 267 266 266 265 265 264 263 263 262 262 262 261 261 261 260 260 260 260 260 259 259 259 259 259 259 259 259 259 259 259 259 259 259 260
267 267 267 267 267 267 267 267 267 267 266 266 265 265 264 263 263 263 262 262 262 262 261 261 261 260 260 260 260 260 260 260 260 260 260 260 259 259 260 260 260 260
268 267 267 266 266 266 265 265 266 266 266 266 266 265 265 264 264 263 263 262 262 262 262 262 262 261 261 261 261 260 260 260 260 260 260 260 260 260 260 260 260 260
269 269 268 267 267 266 265 265 265 265 265 265 265 265 265 265 264 264 263 263 263 262 262 262 261 261 261 261 261 261 261 261 261 261 260 260 260 260 260 260 260 260
269 269 268 268 268 267 267 266 265 265 265 264 264 265 265 265 265 265 264 264 264 263 263 262 262 262 261 261 261 261 261 261 261 261 261 261 261 260 260 260 260 260
268 268 268 268 268 268 267 267 267 266 266 265 265 264 264 264 264 265 265 264 264 264 264 264 263 263 262 262 261 261 260 260 260 260 261 261 261 261 261 260 260 260
270 268 268 267 267 267 267 267 267 267 267 266 266 266 265 265 265 265 265 265 265 265 264 264 264 264 264 263 263 262 262 261 261 260 260 260 260 260 260 260 260 260
272 271 270 268 268 267 267 267 266 266 266 267 267 267 267 266 266 266 266 265 265 265 265 265 264 264 264 264 263 263 262 262 261 261 260 260 259 259 259 260 260 260
275 273 272 271 270 269 268 267 267 267 266 266 266 266 266 266 266 266 266 266 266 265 265 265 264 264 264 263 263 263 263 262 262 262 261 261 260 260 260 260 260 259
276 275 274 273 272 271 270 269 269 268 267 267 267 266 266 266 266 266 266 266 266 265 265 265 265 264 264 264 263 263 263 263 262 262 262 262 262 261 261 261 261 260
276 275 275 274 273 272 271 270 270 269 269 268 268 267 267 266 266 266 266 266 265 265 265 265 265 265 264 264 264 264 264 263 263 263 263 262 262 262 262 262 261 261
276 276 275 274 273 272 272 271 270 270 270 269 269 268 268 267 267 266 266 266 266 266 266 266 266 266 265 265 265 265 265 265 265 264 264 264 264 263 263 262 262 262
277 276 276 275 274 273 273 272 271 271 270 270 269 269 268 267 267 266 266 266 266 266 266 266 266 267 266 266 266 267 267 267 267 267 267 267 266 266 265 264 264 264
278 277 277 276 275 274 273 273 272 271 271 270 270 269 269 268 267 267 266 266 265 266 266 266 267 267 267 267 267 267 268 268 268 268 268 268 268 267 267 266 266 266